Data No.,UTC Date,UTC Time,Latitude,Longitude,Course(deg),Temp(degC),Sal(psu)
3124,2004/9/1,22:50:00,00-00.1000N,151-07.5100E,331,29.131,34.3772
3125,2004/9/1,22:51:00,00-00.3000N,151-07.4100E,331,29.136,34.3722
3126,2004/9/1,22:52:00,00-00.4900N,151-07.3000E,331,29.142,34.3735
3127,2004/9/1,22:53:00,00-00.6900N,151-07.1900E,331,29.148,34.3712
3128,2004/9/1,22:54:00,00-00.8900N,151-07.0800E,331,29.165,34.369
3129,2004/9/1,22:55:00,00-01.0900N,151-06.9800E,330,29.18,34.3657
3130,2004/9/1,22:56:00,00-01.2800N,151-06.8700E,331,29.182,34.3646
3131,2004/9/1,22:57:00,00-01.4800N,151-06.7600E,331,29.193,34.366
3132,2004/9/1,22:58:00,00-01.6900N,151-06.6400E,331,29.186,34.3718
3133,2004/9/1,22:59:00,00-01.8900N,151-06.5400E,331,29.18,34.3788
3134,2004/9/1,23:00:00,00-02.0900N,151-06.4300E,331,29.179,34.3789
3135,2004/9/1,23:01:00,00-02.2900N,151-06.3200E,331,29.172,34.3763
3136,2004/9/1,23:02:00,00-02.4900N,151-06.2100E,331,29.172,34.3755
3137,2004/9/1,23:03:00,00-02.6800N,151-06.1100E,331,29.179,34.3751
3138,2004/9/1,23:04:00,00-02.8800N,151-06.0000E,331,29.173,34.373
3139,2004/9/1,23:05:00,00-03.0800N,151-05.8900E,331,29.171,34.3732
3140,2004/9/1,23:06:00,00-03.2800N,151-05.7800E,331,29.162,34.373
3141,2004/9/1,23:07:00,00-03.4800N,151-05.6800E,331,29.16,34.3713
3142,2004/9/1,23:08:00,00-03.6800N,151-05.5700E,331,29.162,34.368
3143,2004/9/1,23:09:00,00-03.8700N,151-05.4600E,331,29.149,34.3652
3144,2004/9/1,23:10:00,00-04.0700N,151-05.3600E,331,29.127,34.3642
3145,2004/9/1,23:11:00,00-04.2700N,151-05.2500E,331,29.149,34.3575
3146,2004/9/1,23:12:00,00-04.4700N,151-05.1400E,331,29.149,34.3433
3147,2004/9/1,23:13:00,00-04.6700N,151-05.0400E,331,29.153,34.3484
3148,2004/9/1,23:14:00,00-04.8600N,151-04.9300E,331,29.155,34.3505
3149,2004/9/1,23:15:00,00-05.0600N,151-04.8300E,331,29.157,34.35
3150,2004/9/1,23:16:00,00-05.2600N,151-04.7200E,331,29.162,34.35
3151,2004/9/1,23:17:00,00-05.4600N,151-04.6100E,331,29.166,34.3507
3152,2004/9/1,23:18:00,00-05.6600N,151-04.5100E,331,29.166,34.3496
3153,2004/9/1,23:19:00,00-05.8600N,151-04.4000E,331,29.168,34.3514
3154,2004/9/1,23:20:00,00-06.0700N,151-04.2900E,331,29.17,34.3501
3155,2004/9/1,23:21:00,00-06.2700N,151-04.1800E,332,29.184,34.3493
3156,2004/9/1,23:22:00,00-06.4700N,151-04.0800E,332,29.188,34.3499
3157,2004/9/1,23:23:00,00-06.6700N,151-03.9700E,331,29.182,34.3535
3158,2004/9/1,23:24:00,00-06.8600N,151-03.8600E,331,29.183,34.3574
3159,2004/9/1,23:25:00,00-07.0600N,151-03.7600E,331,29.196,34.3564
3160,2004/9/1,23:26:00,00-07.2600N,151-03.6500E,331,29.205,34.3527
3161,2004/9/1,23:27:00,00-07.4600N,151-03.5400E,331,29.206,34.359
3162,2004/9/1,23:28:00,00-07.6600N,151-03.4400E,331,29.213,34.3622
3163,2004/9/1,23:29:00,00-07.8600N,151-03.3300E,331,29.205,34.3637
3164,2004/9/1,23:30:00,00-08.0600N,151-03.2300E,331,29.212,34.3666
3165,2004/9/1,23:31:00,00-08.2600N,151-03.1200E,331,29.219,34.3637
3166,2004/9/1,23:32:00,00-08.4500N,151-03.0100E,331,29.214,34.3647
3167,2004/9/1,23:33:00,00-08.6500N,151-02.9000E,331,29.222,34.3664
3168,2004/9/1,23:34:00,00-08.8500N,151-02.7900E,331,29.231,34.3632
3169,2004/9/1,23:35:00,00-09.0500N,151-02.6800E,331,29.242,34.3634
3170,2004/9/1,23:36:00,00-09.2500N,151-02.5800E,331,29.255,34.3648
3171,2004/9/1,23:37:00,00-09.4500N,151-02.4700E,331,29.267,34.3633
3172,2004/9/1,23:38:00,00-09.6400N,151-02.3600E,331,29.266,34.3655
3173,2004/9/1,23:39:00,00-09.8400N,151-02.2500E,331,29.275,34.3716
3174,2004/9/1,23:40:00,00-10.0400N,151-02.1400E,331,29.286,34.3672
3175,2004/9/1,23:41:00,00-10.2500N,151-02.0300E,331,29.285,34.3691
3176,2004/9/1,23:42:00,00-10.4500N,151-01.9200E,331,29.283,34.3731
3177,2004/9/1,23:43:00,00-10.6500N,151-01.8100E,331,29.27,34.3715
3178,2004/9/1,23:44:00,00-10.8500N,151-01.7000E,331,29.278,34.3685
3179,2004/9/1,23:45:00,00-11.0500N,151-01.5900E,331,29.291,34.3657
3180,2004/9/1,23:46:00,00-11.2400N,151-01.4900E,331,29.286,34.3702
3181,2004/9/1,23:47:00,00-11.4400N,151-01.3800E,331,29.295,34.3815
3182,2004/9/1,23:48:00,00-11.6400N,151-01.2700E,331,29.303,34.3882
3183,2004/9/1,23:49:00,00-11.8400N,151-01.1600E,331,29.307,34.3955
3184,2004/9/1,23:50:00,00-12.0400N,151-01.0500E,331,29.31,34.4012
3185,2004/9/1,23:51:00,00-12.2400N,151-00.9400E,331,29.308,34.4016
3186,2004/9/1,23:52:00,00-12.4300N,151-00.8400E,331,29.309,34.405
3187,2004/9/1,23:53:00,00-12.6300N,151-00.7300E,331,29.317,34.4053
3188,2004/9/1,23:54:00,00-12.8300N,151-00.6200E,331,29.321,34.4061
3189,2004/9/1,23:55:00,00-13.0300N,151-00.5100E,330,29.331,34.4067
3190,2004/9/1,23:56:00,00-13.2300N,151-00.4000E,331,29.329,34.4065
3191,2004/9/1,23:57:00,00-13.4300N,151-00.2900E,331,29.318,34.4067
3192,2004/9/1,23:58:00,00-13.6300N,151-00.1800E,331,29.309,34.4045
3193,2004/9/1,23:59:00,00-13.8200N,151-00.0700E,331,29.305,34.4005
3194,2004/9/2,0:00:00,00-14.0200N,150-59.9600E,331,29.303,34.394
3197,2004/9/2,0:01:00,00-14.2400N,150-59.8500E,330,29.295,34.387
3198,2004/9/2,0:02:00,00-14.4400N,150-59.7400E,331,29.296,34.3844
3199,2004/9/2,0:03:00,00-14.6500N,150-59.6200E,331,29.285,34.3776
3200,2004/9/2,0:04:00,00-14.8500N,150-59.5100E,331,29.283,34.375
3201,2004/9/2,0:05:00,00-15.0500N,150-59.4000E,331,29.28,34.3695
3202,2004/9/2,0:06:00,00-15.2500N,150-59.2900E,331,29.271,34.368
3203,2004/9/2,0:07:00,00-15.4500N,150-59.1900E,331,29.268,34.3661
3204,2004/9/2,0:08:00,00-15.6500N,150-59.0900E,331,29.271,34.3649
3205,2004/9/2,0:09:00,00-15.8500N,150-58.9800E,331,29.271,34.3657
3206,2004/9/2,0:10:00,00-16.0400N,150-58.8700E,332,29.269,34.3669
3207,2004/9/2,0:11:00,00-16.2400N,150-58.7700E,331,29.274,34.3669
3208,2004/9/2,0:12:00,00-16.4400N,150-58.6600E,331,29.275,34.3666
3209,2004/9/2,0:13:00,00-16.6400N,150-58.5600E,331,29.277,34.3665
3210,2004/9/2,0:14:00,00-16.8400N,150-58.4500E,332,29.274,34.3659
3211,2004/9/2,0:15:00,00-17.0400N,150-58.3400E,329,29.267,34.3655
3212,2004/9/2,0:16:00,00-17.2300N,150-58.2200E,327,29.268,34.3645
3213,2004/9/2,0:17:00,00-17.4200N,150-58.1000E,326,29.266,34.3607
3214,2004/9/2,0:18:00,00-17.6100N,150-57.9800E,327,29.264,34.3572
3215,2004/9/2,0:19:00,00-17.8000N,150-57.8600E,327,29.269,34.3552
3216,2004/9/2,0:20:00,00-17.9900N,150-57.7300E,327,29.278,34.3546
3217,2004/9/2,0:21:00,00-18.1800N,150-57.6100E,327,29.28,34.3514
3218,2004/9/2,0:22:00,00-18.3800N,150-57.4900E,327,29.28,34.3498
3219,2004/9/2,0:23:00,00-18.5600N,150-57.3700E,327,29.277,34.3487
3220,2004/9/2,0:24:00,00-18.7500N,150-57.2500E,327,29.278,34.3473
3221,2004/9/2,0:25:00,00-18.9400N,150-57.1300E,327,29.277,34.3448
3222,2004/9/2,0:26:00,00-19.1400N,150-57.0000E,327,29.274,34.3427
3223,2004/9/2,0:27:00,00-19.3300N,150-56.8800E,327,29.264,34.3394
3224,2004/9/2,0:28:00,00-19.5300N,150-56.7600E,327,29.258,34.3361
3225,2004/9/2,0:29:00,00-19.7100N,150-56.6400E,327,29.254,34.3318
3226,2004/9/2,0:30:00,00-19.9000N,150-56.5200E,326,29.247,34.3294
3227,2004/9/2,0:31:00,00-20.1000N,150-56.3900E,327,29.238,34.3268
3228,2004/9/2,0:32:00,00-20.2800N,150-56.2700E,327,29.242,34.3236
3229,2004/9/2,0:33:00,00-20.4700N,150-56.1500E,327,29.25,34.3221
3230,2004/9/2,0:34:00,00-20.6600N,150-56.0300E,326,29.257,34.3184
3231,2004/9/2,0:35:00,00-20.8500N,150-55.9100E,326,29.261,34.3184
3232,2004/9/2,0:36:00,00-21.0400N,150-55.7900E,326,29.26,34.319
3233,2004/9/2,0:37:00,00-21.2300N,150-55.6700E,326,29.237,34.3168
3234,2004/9/2,0:38:00,00-21.4200N,150-55.5400E,326,29.253,34.3147
3235,2004/9/2,0:39:00,00-21.6100N,150-55.4200E,326,29.248,34.3001
3236,2004/9/2,0:40:00,00-21.8000N,150-55.3000E,327,29.257,34.2948
3237,2004/9/2,0:41:00,00-21.9800N,150-55.1800E,327,29.253,34.2837
3238,2004/9/2,0:42:00,00-22.1800N,150-55.0600E,327,29.252,34.2824
3239,2004/9/2,0:43:00,00-22.3600N,150-54.9400E,326,29.246,34.278
3240,2004/9/2,0:44:00,00-22.5600N,150-54.8200E,326,29.24,34.2732
3241,2004/9/2,0:45:00,00-22.7500N,150-54.7000E,327,29.255,34.2695
3242,2004/9/2,0:46:00,00-22.9300N,150-54.5800E,327,29.25,34.268
3243,2004/9/2,0:47:00,00-23.1300N,150-54.4600E,326,29.247,34.2715
3244,2004/9/2,0:48:00,00-23.3300N,150-54.3300E,326,29.262,34.273
3245,2004/9/2,0:49:00,00-23.5200N,150-54.2100E,327,29.263,34.2742
3246,2004/9/2,0:50:00,00-23.7100N,150-54.0900E,327,29.264,34.2826
3247,2004/9/2,0:51:00,00-23.9000N,150-53.9700E,327,29.265,34.2839
3248,2004/9/2,0:52:00,00-24.1000N,150-53.8400E,327,29.261,34.2875
3249,2004/9/2,0:53:00,00-24.2800N,150-53.7200E,327,29.263,34.2895
3250,2004/9/2,0:54:00,00-24.4800N,150-53.6000E,327,29.261,34.2906
3251,2004/9/2,0:55:00,00-24.6600N,150-53.4800E,327,29.261,34.2927
3252,2004/9/2,0:56:00,00-24.8600N,150-53.3600E,327,29.261,34.2926
3253,2004/9/2,0:57:00,00-25.0500N,150-53.2400E,327,29.263,34.2931
3254,2004/9/2,0:58:00,00-25.2400N,150-53.1200E,327,29.266,34.2922
3255,2004/9/2,0:59:00,00-25.4300N,150-53.0000E,326,29.268,34.2917
3256,2004/9/2,1:00:00,00-25.6200N,150-52.8700E,326,29.273,34.289
3257,2004/9/2,1:01:00,00-25.8100N,150-52.7500E,327,29.271,34.2885
3258,2004/9/2,1:02:00,00-26.0100N,150-52.6300E,326,29.273,34.2873
3259,2004/9/2,1:03:00,00-26.2000N,150-52.5000E,326,29.276,34.2832
3260,2004/9/2,1:04:00,00-26.3900N,150-52.3800E,326,29.281,34.2816
3261,2004/9/2,1:05:00,00-26.5800N,150-52.2600E,327,29.294,34.277
3262,2004/9/2,1:06:00,00-26.7700N,150-52.1400E,327,29.292,34.2738
3263,2004/9/2,1:07:00,00-26.9600N,150-52.0100E,327,29.287,34.2711
3264,2004/9/2,1:08:00,00-27.1600N,150-51.8900E,327,29.285,34.2702
3265,2004/9/2,1:09:00,00-27.3500N,150-51.7700E,327,29.295,34.2681
3266,2004/9/2,1:10:00,00-27.5600N,150-51.6400E,327,29.297,34.2646
3267,2004/9/2,1:11:00,00-27.7500N,150-51.5100E,327,29.3,34.2683
3268,2004/9/2,1:12:00,00-27.9500N,150-51.3900E,327,29.299,34.2715
3269,2004/9/2,1:13:00,00-28.1400N,150-51.2700E,327,29.303,34.274
3270,2004/9/2,1:14:00,00-28.3300N,150-51.1500E,326,29.3,34.2754
3271,2004/9/2,1:15:00,00-28.5200N,150-51.0200E,326,29.293,34.276
3272,2004/9/2,1:16:00,00-28.7100N,150-50.9000E,326,29.308,34.273
3273,2004/9/2,1:17:00,00-28.9100N,150-50.7700E,326,29.315,34.263
3274,2004/9/2,1:18:00,00-29.0900N,150-50.6500E,326,29.324,34.2644
3275,2004/9/2,1:19:00,00-29.2900N,150-50.5200E,326,29.337,34.2634
3276,2004/9/2,1:20:00,00-29.4800N,150-50.4000E,327,29.341,34.2633
3277,2004/9/2,1:21:00,00-29.6700N,150-50.2800E,326,29.347,34.265
3278,2004/9/2,1:22:00,00-29.8600N,150-50.1600E,326,29.346,34.2649
3279,2004/9/2,1:23:00,00-30.0500N,150-50.0300E,327,29.358,34.2646
3280,2004/9/2,1:24:00,00-30.2500N,150-49.9100E,327,29.365,34.2646
3281,2004/9/2,1:25:00,00-30.4400N,150-49.7900E,327,29.367,34.2671
3282,2004/9/2,1:26:00,00-30.6300N,150-49.6600E,327,29.394,34.2675
3283,2004/9/2,1:27:00,00-30.8200N,150-49.5400E,326,29.405,34.269
3284,2004/9/2,1:28:00,00-31.0100N,150-49.4100E,326,29.41,34.2764
3285,2004/9/2,1:29:00,00-31.2000N,150-49.3000E,327,29.417,34.2788
3286,2004/9/2,1:30:00,00-31.3900N,150-49.1700E,327,29.425,34.2789
3287,2004/9/2,1:31:00,00-31.5800N,150-49.0500E,326,29.428,34.2796
3288,2004/9/2,1:32:00,00-31.7900N,150-48.9200E,326,29.432,34.2809
3289,2004/9/2,1:33:00,00-31.9800N,150-48.7900E,327,29.434,34.2814
3290,2004/9/2,1:34:00,00-32.1700N,150-48.6700E,327,29.435,34.2814
3291,2004/9/2,1:35:00,00-32.3600N,150-48.5500E,327,29.437,34.2811
3292,2004/9/2,1:36:00,00-32.5500N,150-48.4300E,326,29.439,34.2801
3293,2004/9/2,1:37:00,00-32.7500N,150-48.3000E,327,29.438,34.279
3294,2004/9/2,1:38:00,00-32.9400N,150-48.1800E,327,29.435,34.279
3295,2004/9/2,1:39:00,00-33.1300N,150-48.0600E,327,29.43,34.2782
3296,2004/9/2,1:40:00,00-33.3200N,150-47.9400E,327,29.426,34.2777
3297,2004/9/2,1:41:00,00-33.5200N,150-47.8200E,327,29.425,34.2792
3298,2004/9/2,1:42:00,00-33.7100N,150-47.7000E,327,29.425,34.2777
3299,2004/9/2,1:43:00,00-33.9100N,150-47.5700E,327,29.428,34.2779
3300,2004/9/2,1:44:00,00-34.0900N,150-47.4500E,326,29.434,34.2762
3301,2004/9/2,1:45:00,00-34.2900N,150-47.3300E,327,29.439,34.276
3302,2004/9/2,1:46:00,00-34.4800N,150-47.2000E,326,29.441,34.2735
3303,2004/9/2,1:47:00,00-34.6700N,150-47.0800E,327,29.446,34.2731
3304,2004/9/2,1:48:00,00-34.8600N,150-46.9600E,327,29.451,34.2727
3305,2004/9/2,1:49:00,00-35.0500N,150-46.8300E,326,29.456,34.2717
3306,2004/9/2,1:50:00,00-35.2500N,150-46.7100E,327,29.458,34.2695
3307,2004/9/2,1:51:00,00-35.4300N,150-46.5900E,326,29.459,34.2681
3308,2004/9/2,1:52:00,00-35.6300N,150-46.4600E,327,29.461,34.2655
3309,2004/9/2,1:53:00,00-35.8200N,150-46.3400E,327,29.464,34.2641
3310,2004/9/2,1:54:00,00-36.0200N,150-46.2100E,326,29.464,34.2607
3311,2004/9/2,1:55:00,00-36.2200N,150-46.0900E,327,29.467,34.2566
3312,2004/9/2,1:56:00,00-36.4100N,150-45.9700E,327,29.466,34.2517
3313,2004/9/2,1:57:00,00-36.6000N,150-45.8400E,327,29.464,34.2498
3314,2004/9/2,1:58:00,00-36.7900N,150-45.7200E,327,29.468,34.2469
3315,2004/9/2,1:59:00,00-36.9800N,150-45.6000E,326,29.469,34.2439
3316,2004/9/2,2:00:00,00-37.1700N,150-45.4800E,326,29.474,34.2431
3317,2004/9/2,2:01:00,00-37.3600N,150-45.3500E,327,29.482,34.243
3318,2004/9/2,2:02:00,00-37.5500N,150-45.2300E,326,29.483,34.2438
3319,2004/9/2,2:03:00,00-37.7300N,150-45.1100E,326,29.487,34.2406
3320,2004/9/2,2:04:00,00-37.9200N,150-44.9800E,326,29.493,34.2384
3321,2004/9/2,2:05:00,00-38.1100N,150-44.8600E,326,29.497,34.2369
3322,2004/9/2,2:06:00,00-38.3000N,150-44.7400E,326,29.503,34.2403
3323,2004/9/2,2:07:00,00-38.4900N,150-44.6100E,326,29.496,34.2417
3324,2004/9/2,2:08:00,00-38.6800N,150-44.4900E,327,29.485,34.2469
3325,2004/9/2,2:09:00,00-38.8700N,150-44.3700E,326,29.482,34.2513
3326,2004/9/2,2:10:00,00-39.0500N,150-44.2500E,326,29.482,34.2495
3327,2004/9/2,2:11:00,00-39.2400N,150-44.1300E,326,29.475,34.2482
3328,2004/9/2,2:12:00,00-39.4300N,150-44.0100E,327,29.462,34.2475
3329,2004/9/2,2:13:00,00-39.6200N,150-43.8800E,327,29.466,34.2421
3330,2004/9/2,2:14:00,00-39.8100N,150-43.7600E,327,29.469,34.2304
3331,2004/9/2,2:15:00,00-40.0000N,150-43.6400E,327,29.47,34.2263
3332,2004/9/2,2:16:00,00-40.2000N,150-43.5100E,327,29.469,34.2241
3333,2004/9/2,2:17:00,00-40.3900N,150-43.3900E,327,29.469,34.222
3334,2004/9/2,2:18:00,00-40.5800N,150-43.2700E,327,29.465,34.2185
3335,2004/9/2,2:19:00,00-40.7700N,150-43.1500E,327,29.466,34.2173
3336,2004/9/2,2:20:00,00-40.9600N,150-43.0300E,327,29.469,34.2162
3337,2004/9/2,2:21:00,00-41.1500N,150-42.9200E,327,29.462,34.2161
3338,2004/9/2,2:22:00,00-41.3400N,150-42.7900E,327,29.451,34.2172
3339,2004/9/2,2:23:00,00-41.5300N,150-42.6800E,327,29.452,34.2131
3340,2004/9/2,2:24:00,00-41.7200N,150-42.5600E,327,29.451,34.205
21,2004/9/3,1:00:00,04-50.8500N,148-07.8000E,328,29.36,34.0007
22,2004/9/3,1:01:00,04-51.0400N,148-07.6900E,329,29.372,33.9998
23,2004/9/3,1:02:00,04-51.2300N,148-07.5900E,329,29.342,33.9986
24,2004/9/3,1:03:00,04-51.4100N,148-07.4800E,328,29.371,33.9962
25,2004/9/3,1:04:00,04-51.5900N,148-07.3700E,329,29.367,33.9923
26,2004/9/3,1:05:00,04-51.7800N,148-07.2600E,328,29.333,33.9908
27,2004/9/3,1:06:00,04-51.9600N,148-07.1500E,328,29.388,33.989
28,2004/9/3,1:07:00,04-52.1500N,148-07.0400E,329,29.375,33.9884
29,2004/9/3,1:08:00,04-52.3500N,148-06.9200E,329,29.361,33.9887
30,2004/9/3,1:09:00,04-52.5300N,148-06.8100E,329,29.357,33.9871
31,2004/9/3,1:10:00,04-52.7200N,148-06.7000E,328,29.382,33.9871
32,2004/9/3,1:11:00,04-52.9000N,148-06.5900E,328,29.393,33.986
33,2004/9/3,1:12:00,04-53.0900N,148-06.4800E,330,29.37,33.9884
34,2004/9/3,1:13:00,04-53.2700N,148-06.3800E,329,29.356,33.9879
35,2004/9/3,1:14:00,04-53.4600N,148-06.2700E,329,29.389,33.988
36,2004/9/3,1:15:00,04-53.6500N,148-06.1600E,329,29.397,33.9892
37,2004/9/3,1:16:00,04-53.8400N,148-06.0500E,329,29.386,33.9946
38,2004/9/3,1:17:00,04-54.0200N,148-05.9400E,329,29.383,33.9985
39,2004/9/3,1:18:00,04-54.2100N,148-05.8300E,329,29.404,34.0001
40,2004/9/3,1:19:00,04-54.4000N,148-05.7200E,329,29.422,34.002
41,2004/9/3,1:20:00,04-54.5800N,148-05.6100E,328,29.445,34.0035
42,2004/9/3,1:21:00,04-54.7700N,148-05.5000E,328,29.409,34.0037
43,2004/9/3,1:22:00,04-54.9500N,148-05.3900E,328,29.383,34.0038
44,2004/9/3,1:23:00,04-55.1400N,148-05.2800E,329,29.377,34.0055
45,2004/9/3,1:24:00,04-55.3300N,148-05.1700E,329,29.38,34.0055
46,2004/9/3,1:25:00,04-55.5200N,148-05.0600E,329,29.387,34.008
47,2004/9/3,1:26:00,04-55.7000N,148-04.9500E,328,29.396,34.009
48,2004/9/3,1:27:00,04-55.8800N,148-04.8400E,328,29.404,34.0103
49,2004/9/3,1:28:00,04-56.0700N,148-04.7300E,328,29.368,34.0098
50,2004/9/3,1:29:00,04-56.2600N,148-04.6200E,329,29.391,34.0099
51,2004/9/3,1:30:00,04-56.4400N,148-04.5100E,328,29.34,34.0099
52,2004/9/3,1:31:00,04-56.6400N,148-04.3900E,328,29.346,34.0086
53,2004/9/3,1:32:00,04-56.8300N,148-04.2800E,328,29.346,34.0072
54,2004/9/3,1:33:00,04-57.0100N,148-04.1600E,328,29.36,34.0081
55,2004/9/3,1:34:00,04-57.2000N,148-04.0500E,329,29.353,34.0092
56,2004/9/3,1:35:00,04-57.3800N,148-03.9400E,329,29.37,34.01
57,2004/9/3,1:36:00,04-57.5700N,148-03.8300E,329,29.383,34.0115
58,2004/9/3,1:37:00,04-57.7600N,148-03.7200E,329,29.369,34.0112
59,2004/9/3,1:38:00,04-57.9400N,148-03.6100E,329,29.349,34.0126
60,2004/9/3,1:39:00,04-58.1300N,148-03.5100E,329,29.33,34.0121
61,2004/9/3,1:40:00,04-58.3200N,148-03.3900E,329,29.399,34.0105
62,2004/9/3,1:41:00,04-58.5000N,148-03.2800E,329,29.378,34.0102
63,2004/9/3,1:42:00,04-58.6900N,148-03.1700E,329,29.359,34.0117
64,2004/9/3,1:43:00,04-58.8700N,148-03.0600E,329,29.354,34.0134
65,2004/9/3,1:44:00,04-59.0600N,148-02.9500E,329,29.35,34.0132
66,2004/9/3,1:45:00,04-59.2500N,148-02.8400E,329,29.368,34.0142
67,2004/9/3,1:46:00,04-59.4400N,148-02.7300E,328,29.379,34.0129
68,2004/9/3,1:47:00,04-59.6200N,148-02.6200E,328,29.343,34.0135
69,2004/9/3,1:48:00,04-59.8100N,148-02.5000E,329,29.383,34.0156
70,2004/9/3,1:49:00,05-00.0000N,148-02.3900E,329,29.349,34.0138
71,2004/9/3,1:50:00,05-00.1800N,148-02.2800E,329,29.329,34.0134
72,2004/9/3,1:51:00,05-00.3700N,148-02.1700E,329,29.365,34.0133
73,2004/9/3,1:52:00,05-00.5600N,148-02.0600E,329,29.355,34.0132
74,2004/9/3,1:53:00,05-00.7500N,148-01.9500E,329,29.332,34.0141
75,2004/9/3,1:54:00,05-00.9600N,148-01.8400E,330,29.323,34.0145
76,2004/9/3,1:55:00,05-01.1400N,148-01.7300E,329,29.35,34.0142
77,2004/9/3,1:56:00,05-01.3300N,148-01.6200E,329,29.349,34.0134
78,2004/9/3,1:57:00,05-01.5200N,148-01.5100E,329,29.358,34.014
79,2004/9/3,1:58:00,05-01.7100N,148-01.4000E,329,29.327,34.0145
80,2004/9/3,1:59:00,05-01.8900N,148-01.2900E,329,29.305,34.0139
81,2004/9/3,2:00:00,05-02.0800N,148-01.1800E,329,29.32,34.0129
82,2004/9/3,2:01:00,05-02.2700N,148-01.0700E,329,29.356,34.0118
83,2004/9/3,2:02:00,05-02.4600N,148-00.9600E,329,29.333,34.0114
84,2004/9/3,2:03:00,05-02.6500N,148-00.8400E,329,29.303,34.0114
85,2004/9/3,2:04:00,05-02.8300N,148-00.7300E,329,29.303,34.0116
86,2004/9/3,2:05:00,05-03.0200N,148-00.6200E,329,29.296,34.0112
87,2004/9/3,2:06:00,05-03.2100N,148-00.5100E,329,29.291,34.0101
88,2004/9/3,2:07:00,05-03.4000N,148-00.4000E,329,29.287,34.0096
89,2004/9/3,2:08:00,05-03.5800N,148-00.2900E,329,29.275,34.0084
90,2004/9/3,2:09:00,05-03.7700N,148-00.1800E,329,29.268,34.0063
91,2004/9/3,2:10:00,05-03.9600N,148-00.0700E,329,29.265,34.0063
92,2004/9/3,2:11:00,05-04.1500N,147-59.9700E,329,29.264,34.0055
93,2004/9/3,2:12:00,05-04.3300N,147-59.8600E,329,29.254,34.0061
94,2004/9/3,2:13:00,05-04.5200N,147-59.7500E,329,29.26,34.0057
95,2004/9/3,2:14:00,05-04.7100N,147-59.6400E,329,29.271,34.0055
96,2004/9/3,2:15:00,05-04.9000N,147-59.5300E,329,29.262,34.0057
97,2004/9/3,2:16:00,05-05.0900N,147-59.4200E,329,29.263,34.0055
98,2004/9/3,2:17:00,05-05.2900N,147-59.3000E,327,29.275,34.0058
99,2004/9/3,2:18:00,05-05.4700N,147-59.1800E,326,29.273,34.0069
100,2004/9/3,2:19:00,05-05.6500N,147-59.0600E,326,29.26,34.0064
101,2004/9/3,2:20:00,05-05.8300N,147-58.9400E,326,29.256,34.0053
102,2004/9/3,2:21:00,05-06.0000N,147-58.8200E,326,29.25,34.0074
103,2004/9/3,2:22:00,05-06.1900N,147-58.7000E,326,29.248,34.0073
104,2004/9/3,2:23:00,05-06.3700N,147-58.5800E,326,29.247,34.0073
105,2004/9/3,2:24:00,05-06.5500N,147-58.4600E,325,29.266,34.0071
106,2004/9/3,2:25:00,05-06.7300N,147-58.3400E,325,29.295,34.007
107,2004/9/3,2:26:00,05-06.9000N,147-58.2200E,325,29.287,34.0054
108,2004/9/3,2:27:00,05-07.0800N,147-58.1000E,325,29.281,34.0056
109,2004/9/3,2:28:00,05-07.2600N,147-57.9800E,326,29.283,34.0045
110,2004/9/3,2:29:00,05-07.4400N,147-57.8600E,327,29.258,34.0036
111,2004/9/3,2:30:00,05-07.6200N,147-57.7400E,326,29.267,34.0049
112,2004/9/3,2:31:00,05-07.8100N,147-57.6200E,327,29.267,34.0055
113,2004/9/3,2:32:00,05-07.9900N,147-57.5100E,326,29.272,34.0075
114,2004/9/3,2:33:00,05-08.1700N,147-57.3900E,326,29.3,34.0107
115,2004/9/3,2:34:00,05-08.3500N,147-57.2700E,326,29.289,34.0122
116,2004/9/3,2:35:00,05-08.5300N,147-57.1500E,326,29.332,34.0133
117,2004/9/3,2:36:00,05-08.7100N,147-57.0300E,326,29.366,34.0144
118,2004/9/3,2:37:00,05-08.8900N,147-56.9100E,326,29.362,34.0146
119,2004/9/3,2:38:00,05-09.0700N,147-56.8000E,326,29.348,34.0157
120,2004/9/3,2:39:00,05-09.2600N,147-56.6700E,327,29.332,34.0161
121,2004/9/3,2:40:00,05-09.4400N,147-56.5600E,327,29.317,34.0162
122,2004/9/3,2:41:00,05-09.6200N,147-56.4400E,327,29.309,34.0161
123,2004/9/3,2:42:00,05-09.8000N,147-56.3200E,327,29.36,34.0156
124,2004/9/3,2:43:00,05-09.9900N,147-56.2000E,326,29.372,34.0151
125,2004/9/3,2:44:00,05-10.1700N,147-56.0800E,326,29.396,34.0163
126,2004/9/3,2:45:00,05-10.3500N,147-55.9700E,326,29.365,34.0167
127,2004/9/3,2:46:00,05-10.5300N,147-55.8500E,327,29.352,34.0189
128,2004/9/3,2:47:00,05-10.7100N,147-55.7300E,328,29.338,34.0186
129,2004/9/3,2:48:00,05-10.8900N,147-55.6200E,327,29.343,34.0199
130,2004/9/3,2:49:00,05-11.0700N,147-55.5000E,327,29.378,34.0206
131,2004/9/3,2:50:00,05-11.2600N,147-55.3900E,326,29.383,34.0205
132,2004/9/3,2:51:00,05-11.4400N,147-55.2700E,326,29.413,34.0213
133,2004/9/3,2:52:00,05-11.6200N,147-55.1500E,326,29.368,34.0217
134,2004/9/3,2:53:00,05-11.8000N,147-55.0300E,326,29.359,34.0223
135,2004/9/3,2:54:00,05-11.9900N,147-54.9100E,327,29.366,34.0219
136,2004/9/3,2:55:00,05-12.1600N,147-54.8000E,327,29.355,34.0207
137,2004/9/3,2:56:00,05-12.3500N,147-54.6800E,326,29.404,34.0203
138,2004/9/3,2:57:00,05-12.5200N,147-54.5600E,327,29.364,34.0209
139,2004/9/3,2:58:00,05-12.7100N,147-54.4400E,327,29.413,34.022
140,2004/9/3,2:59:00,05-12.8900N,147-54.3200E,327,29.364,34.0213
141,2004/9/3,3:00:00,05-13.0700N,147-54.2100E,327,29.423,34.0219
142,2004/9/3,3:01:00,05-13.2700N,147-54.0800E,326,29.448,34.0211
143,2004/9/3,3:02:00,05-13.4500N,147-53.9700E,326,29.435,34.0224
144,2004/9/3,3:03:00,05-13.6400N,147-53.8400E,326,29.397,34.0217
145,2004/9/3,3:04:00,05-13.8200N,147-53.7300E,327,29.403,34.0222
146,2004/9/3,3:05:00,05-14.0000N,147-53.6100E,327,29.412,34.0217
147,2004/9/3,3:06:00,05-14.1800N,147-53.4900E,327,29.393,34.0207
148,2004/9/3,3:07:00,05-14.3600N,147-53.3800E,327,29.388,34.0205
149,2004/9/3,3:08:00,05-14.5500N,147-53.2600E,327,29.405,34.0209
150,2004/9/3,3:09:00,05-14.7300N,147-53.1400E,326,29.459,34.0218
151,2004/9/3,3:10:00,05-14.9100N,147-53.0300E,326,29.489,34.0222
152,2004/9/3,3:11:00,05-15.0900N,147-52.9100E,327,29.439,34.0226
153,2004/9/3,3:12:00,05-15.2700N,147-52.7900E,326,29.473,34.0222
154,2004/9/3,3:13:00,05-15.4600N,147-52.6700E,326,29.535,34.0238
155,2004/9/3,3:14:00,05-15.6400N,147-52.5500E,326,29.52,34.0255
156,2004/9/3,3:15:00,05-15.8300N,147-52.4300E,327,29.499,34.0253
157,2004/9/3,3:16:00,05-16.0100N,147-52.3200E,327,29.469,34.0262
158,2004/9/3,3:17:00,05-16.1900N,147-52.2000E,327,29.467,34.0251
159,2004/9/3,3:18:00,05-16.3700N,147-52.0800E,327,29.47,34.0236
160,2004/9/3,3:19:00,05-16.5500N,147-51.9700E,326,29.467,34.0239
161,2004/9/3,3:20:00,05-16.7300N,147-51.8500E,326,29.481,34.0236
162,2004/9/3,3:21:00,05-16.9100N,147-51.7300E,326,29.407,34.0229
163,2004/9/3,3:22:00,05-17.1000N,147-51.6100E,326,29.411,34.0225
164,2004/9/3,3:23:00,05-17.2900N,147-51.4800E,327,29.383,34.0211
165,2004/9/3,3:24:00,05-17.4700N,147-51.3700E,327,29.368,34.0216